{"data":{"norad_id":53075,"epoch":"2026-09-19T17:15:29.008800Z","epoch_age_seconds":139785,"freshness":"FRESH","line1":"1 53075U 22077AJ  26262.71908575  .00001347  00000+0  44059-4 0  9998","line2":"2 53075  97.2852  77.5250 0001590  90.6271 269.5154 15.33435866230170","mean_motion":15.33435866,"eccentricity":0.000159,"inclination_deg":97.2852,"raan_deg":77.525,"arg_perigee_deg":90.6271,"mean_anomaly_deg":269.5154,"bstar":4.4059e-5,"rev_number":23017,"period_min":93.906764014609,"perigee_km":464.48220150191,"apogee_km":466.65850043952,"semimajor_km":6843.7073509707,"source":"CELESTRAK","updated_at":"2026-09-20T09:00:40.156385Z"}}